Home > Weather > Grande Prairie > Past weeks

Flag for Canada Weather for the Past 2 Weeks in Grande Prairie, Alberta, Canada

Now
72 °F

Partly sunny.


Feels Like: 73 °F
Forecast: 38 / 71 °F
Wind: 16 mph from West

Location: Grande Prairie

Current Time: May 6, 2016 at 5:31:41 PM

Latest Report: May 6, 2016 at 5:00 PM


Visibility: 25 mi

Pressure: 30.06 "Hg (27.86 "Hg at 657m altitude)

Humidity: 14%

Dew Point: 19 °F

Location of Grande PrairieLocation

Historic Weather in Grande Prairie — Graph

°F

Grande Prairie Temperature Yesterday

Maximum temperature yesterday: 64 °F (at 6:00 PM)
Minimum temperature yesterday: 39 °F (at 4:00 AM)
Average temperature yesterday: 52 °F

High & Low Weather Summary for the Past Weeks

 TemperatureHumidityPressure
High81 °F (May 2, 5:00 PM)93% (Apr 24, 5:00 AM)30.29 "Hg (Apr 24, 5:00 AM)
Low32 °F (Apr 24, 5:00 AM)15% (Apr 30, 5:00 PM)29.80 "Hg (May 3, 9:00 PM)
Average53 °F47%30.00 "Hg
* Reported Apr 21 4:00 PM — May 6 4:00 PM, Grande Prairie, Weather by CustomWeather, © 2016

Note: Actual official high and low records may vary slightly from our data, if they occured in-between our weather recording intervals... More about our weather records

Advertising

Grande Prairie Weather History for the Previous 24 Hours

Scroll right to see more
 ConditionsComfort  
Time TempWeatherWind HumidityBarometerVisibility
4:00 PM
Fri, May 6
70 °FPartly sunny.No wind17%30.09 "Hg25 mi
3:00 PM70 °FPartly sunny.17 mph17%30.12 "Hg25 mi
2:00 PM66 °FPartly sunny.6 mph19%30.15 "Hg25 mi
1:00 PM66 °FPartly sunny.14 mph21%30.17 "Hg25 mi
12:00 PM64 °FPartly sunny.10 mph21%30.20 "Hg25 mi
11:00 AM63 °FBroken clouds.10 mph27%30.22 "Hg25 mi
10:00 AM55 °FScattered clouds.9 mph33%30.23 "Hg25 mi
9:00 AM50 °FScattered clouds.12 mph40%30.23 "Hg25 mi
8:00 AM43 °FPassing clouds.6 mph53%30.25 "Hg25 mi
7:00 AM39 °FPassing clouds.7 mph61%30.24 "Hg25 mi
6:00 AM41 °FPassing clouds.5 mph45%30.24 "Hg25 mi
5:00 AM39 °FPassing clouds.3 mph48%30.23 "Hg25 mi
4:00 AM43 °FPassing clouds.6 mph46%30.22 "Hg25 mi
3:00 AM43 °FPassing clouds.9 mph46%30.22 "Hg25 mi
2:00 AM45 °FPassing clouds.8 mph42%30.22 "Hg25 mi
1:00 AM46 °FPassing clouds.No wind40%30.21 "Hg25 mi
12:00 AM48 °FPassing clouds.10 mph34%30.18 "Hg25 mi
11:00 PM
Thu, May 5
52 °FPassing clouds.10 mph30%30.16 "Hg25 mi
10:00 PM54 °FScattered clouds.12 mph26%30.14 "Hg25 mi
9:00 PM59 °FScattered clouds.14 mph20%30.10 "Hg25 mi
8:00 PM61 °FPartly sunny.14 mph19%30.09 "Hg25 mi
7:00 PM64 °FPassing clouds.17 mph15%30.08 "Hg25 mi
6:00 PM64 °FPassing clouds.17 mph15%30.08 "Hg25 mi
5:00 PM63 °FPassing clouds.15 mph16%30.09 "Hg25 mi
Weather by CustomWeather, © 2016

See weather overviewHow to use our weather pages